Address 0x8386ac159732b1672c31b3f10a49cdf6e1cc96f8 1

 
 
Txn Hash Method
Block
From
To
Value [Txn Fee]
0xe91f20b38b06cbd71f4fd7f59c38fd3e52bda89605ff8c068868b0c8f178fb43Fight100462662021-08-15 9:01:4536 days 1 hr ago0x8386ac159732b1672c31b3f10a49cdf6e1cc96f8OUT CryptoBlades: Gameplay0 BNB0.000752415
0x021ba1fb1a02f5c1000a921c89479366f9608451197cda8532af45e1c870c61aFight99799752021-08-13 1:09:1838 days 9 hrs ago0x8386ac159732b1672c31b3f10a49cdf6e1cc96f8OUT CryptoBlades: Gameplay0 BNB0.000748115
0x090e79afea484bec8799cc17df18b4bfc0b071c5f4744f936f7dd81556a6a22bFight99799612021-08-13 1:08:3638 days 9 hrs ago0x8386ac159732b1672c31b3f10a49cdf6e1cc96f8OUT CryptoBlades: Gameplay0 BNB0.00074564
0x3903d4677853aa3e40390eb125eb4ca5d9fa19b0dcf374406bd543efb9032126Fight99799472021-08-13 1:07:5438 days 9 hrs ago0x8386ac159732b1672c31b3f10a49cdf6e1cc96f8OUT CryptoBlades: Gameplay0 BNB0.00074745
0xd1568621d540d09d48091dc3d0c3935a2f1caa8cd14ad6553a9b2df94864e188Fight99799352021-08-13 1:07:1838 days 9 hrs ago0x8386ac159732b1672c31b3f10a49cdf6e1cc96f8OUT CryptoBlades: Gameplay0 BNB0.00074667
0xfd775a918bb6dc34fcc36408071d6e47be06e896493ab4e0b9bf55820571240bFight99554402021-08-12 4:18:3939 days 6 hrs ago0x8386ac159732b1672c31b3f10a49cdf6e1cc96f8OUT CryptoBlades: Gameplay0 BNB0.00073931
0x7a55573a540dd68323e9a5c1bb9a68a8185515aa8439c60ffa3d82afdf0cb4a3Fight99554152021-08-12 4:17:0539 days 6 hrs ago0x8386ac159732b1672c31b3f10a49cdf6e1cc96f8OUT CryptoBlades: Gameplay0 BNB0.000750765
0xac53c722a6d08f2f0eb51823628d5b8e9648e10c227d16fa99e12aba52ca8b1cFight99509822021-08-12 0:31:2939 days 10 hrs ago0x8386ac159732b1672c31b3f10a49cdf6e1cc96f8OUT CryptoBlades: Gameplay0 BNB0.00074726
0xdc0f0f52a7297524f8996d5e0304e54892bf632a1d18280aaa2b48bf953963acFight99509652021-08-12 0:30:3839 days 10 hrs ago0x8386ac159732b1672c31b3f10a49cdf6e1cc96f8OUT CryptoBlades: Gameplay0 BNB0.00075101
0xee5187ee7b5c06bf71daaa41b7c25d6b0027b059c432b859e7635e3f4381aa3bFight99383032021-08-11 13:03:0539 days 21 hrs ago0x8386ac159732b1672c31b3f10a49cdf6e1cc96f8OUT CryptoBlades: Gameplay0 BNB0.00074605
0x3227cfb228f63e03008d7bee8c22342dc7c046a6fb5b5fb3470362085aa6bfc4Fight99382872021-08-11 13:02:1739 days 21 hrs ago0x8386ac159732b1672c31b3f10a49cdf6e1cc96f8OUT CryptoBlades: Gameplay0 BNB0.00075238
0x56d71ac2de2c8342abc039b50cbe6dde3e1fa56455d480001c836f403fe93a4cFight99379552021-08-11 12:45:4139 days 21 hrs ago0x8386ac159732b1672c31b3f10a49cdf6e1cc96f8OUT CryptoBlades: Gameplay0 BNB0.00074423
0x27524963b52e9a058d7d848ef6537e8e155d05a485fb0c74a220c53e99fbe6c3Fight99369052021-08-11 11:53:0939 days 22 hrs ago0x8386ac159732b1672c31b3f10a49cdf6e1cc96f8OUT CryptoBlades: Gameplay0 BNB0.000826785
0x17c9c5e525d0c8b4a5fd0a39d51e32a0a2ae94a8000b02918c4bb1edc7274632Fight99304982021-08-11 6:31:0040 days 4 hrs ago0x8386ac159732b1672c31b3f10a49cdf6e1cc96f8OUT CryptoBlades: Gameplay0 BNB0.0008207
0xd044d33e79a1a1cdafc1b8c3befc55eacae1217af16a2df533849e3819c8b92eFight99237782021-08-11 0:52:5540 days 9 hrs ago0x8386ac159732b1672c31b3f10a49cdf6e1cc96f8OUT CryptoBlades: Gameplay0 BNB0.000826725
0x8847940cd31c0b827efb2922cbe8c9d635a72dac4e1eb86de615c0e0f98cafb3Fight99237702021-08-11 0:52:3140 days 9 hrs ago0x8386ac159732b1672c31b3f10a49cdf6e1cc96f8OUT CryptoBlades: Gameplay0 BNB0.000926605
0x789b7885c276452a16e4976cd3396656b224f8d8006b21d15ccf74bfa5183608Claim Xp Rewards99233852021-08-11 0:33:1640 days 9 hrs ago0x8386ac159732b1672c31b3f10a49cdf6e1cc96f8OUT CryptoBlades: Gameplay0 BNB0.001091055
0x0e325961b03c84b289674d37c6260f7c80bd3b147139783bff3dee4b6abf73c5Stake Unclaimed ...99233782021-08-11 0:32:5540 days 9 hrs ago0x8386ac159732b1672c31b3f10a49cdf6e1cc96f8OUT CryptoBlades: Gameplay0 BNB0.00067112
0x87d3f5743b30602e3f811f55d8526ec1de83523ca48cc43c31487b21218c0a89Fight99233652021-08-11 0:32:1640 days 10 hrs ago0x8386ac159732b1672c31b3f10a49cdf6e1cc96f8OUT CryptoBlades: Gameplay0 BNB0.000846395
0xdeb6ea89a3d6f20b978b6b2bf4b7c5be434533e125baaa0ff053d98a6097781fClaim Token Rewa...99096202021-08-10 13:03:5540 days 21 hrs ago0x8386ac159732b1672c31b3f10a49cdf6e1cc96f8OUT CryptoBlades: Gameplay0 BNB0.00030264
0x1628ae29fccaad96a81ce2940f79b49bc4f51dbb4c24d0f59d3bd080ff700f30Fight99096082021-08-10 13:03:1940 days 21 hrs ago0x8386ac159732b1672c31b3f10a49cdf6e1cc96f8OUT CryptoBlades: Gameplay0 BNB0.000747775
0x38fdeab6a223341a53cb1a1c6a1a13ae1b7e7d155617aab4d42eb73de92c2e7aFight99095942021-08-10 13:02:3740 days 21 hrs ago0x8386ac159732b1672c31b3f10a49cdf6e1cc96f8OUT CryptoBlades: Gameplay0 BNB0.000743575
0xeb934b245c0d313dc380dcd4d96732ffe4f4e67de198a121dcf0f4cb8e5c84aeFight99095792021-08-10 13:01:5240 days 21 hrs ago0x8386ac159732b1672c31b3f10a49cdf6e1cc96f8OUT CryptoBlades: Gameplay0 BNB0.00075233
0xcc6f7bd463b9123a8505c4318d35a783ee11042f759d52f31b2cce554e749fbeFight99095682021-08-10 13:01:1940 days 21 hrs ago0x8386ac159732b1672c31b3f10a49cdf6e1cc96f8OUT CryptoBlades: Gameplay0 BNB0.000852675
0xd7af852f5c3b48dcc763ea474dab73b6291374e783dc613694e42c361d498093Transfer99045172021-08-10 8:32:5341 days 1 hr ago0x8386ac159732b1672c31b3f10a49cdf6e1cc96f8OUT CryptoBlades: SKILL Token0 BNB0.00012108
[ Download CSV Export 
Latest 4 internal transactions
Parent Txn Hash Block From To Value
0x9b09d0687fb193cad7206e7d99b5ceefdb5e323b4e4b8b6a2234f55082d5f3fe99044882021-08-10 8:30:2141 days 2 hrs ago 0xc590175e458b83680867afd273527ff58f74c02b0x8386ac159732b1672c31b3f10a49cdf6e1cc96f80.145341135982686541 BNB
0x797222514558755bc4e4a59751bc53cf7edb0087b062a137b9c8a7f9727df73f97070192021-08-03 6:57:0648 days 3 hrs ago 0xc590175e458b83680867afd273527ff58f74c02b0x8386ac159732b1672c31b3f10a49cdf6e1cc96f80.074700595617644926 BNB
0x27ddb22510a9dba4d1edbc8bb0e69e79fbb9807ef5b76ed6455e778563ba3bce94155172021-07-23 18:34:2958 days 15 hrs ago 0xc590175e458b83680867afd273527ff58f74c02b0x8386ac159732b1672c31b3f10a49cdf6e1cc96f80.300449848104215097 BNB
0xf74d02b89d1f7a0a374273963ecb5f3beb4d87823969925d0f21ad5aade008ef92953432021-07-19 14:15:2162 days 20 hrs ago 0xc590175e458b83680867afd273527ff58f74c02b0x8386ac159732b1672c31b3f10a49cdf6e1cc96f80.3572825171430946 BNB
[ Download CSV Export 
Loading

Contract Name:
0 BNB

Compiler Version
0

Optimization Enabled:
0 BNB

Other Settings:
-NA-
Block Transaction Gas Used Reward
Age Block Fee Address BC Fee Address Voting Power Jailed Incoming
Block Uncle Number Difficulty Gas Used Reward
Loading
Loading
Make sure to use the "Vote Down" button for any spammy posts, and the "Vote Up" for interesting conversations.